FENGYUN 1C DEB, 30567

Orbit data source: Space-Track

FENGYUN 1C DEB, 30567 is space debris in SSO originally from a launch on Mon, 10 May 1999 UTC launched from the Taiyaun Space Center, China (TSC). Fengyun 1C debris stems from the Chinese weather satellite Fengyun-1C, which was intentionally destroyed by a Chinese anti-satellite missile in 2007. This event dramatically increased the amount of space debris, with thousands of trackable fragments posing hazards to satellites and human spaceflight. The Fengyun 1C debris cloud has become a focal point in discussions about space sustainability and the need for international regulations to prevent the creation of new debris.

Loading next visibility...
Identifier
30567, 1999-025ALH
Orbit
SSO
Country
Flag of CNCN / PRC
Related business
Manufacturer
Unknown
Mission
Spacecraft
Bus & Motor
Unknown
Mass
Unknown
Launch date (UTC)
1999-05-10 (27 years ago)
Launch vehicle
Unknown
Launch site
Taiyaun Space Center, China (TSC)
Object type
Payload
Rocket body
Debris
Shape & HBR
Unknown shape, 0.1 m
Radar Cross Section
Medium (>0.1 m² and <1 m²)

Expand to show TLE details & history
Last TLE update: 1 week ago

TLE from 1 week ago
0 FENGYUN 1C DEB
1 30567U 99025ALH 26154.68938201  .00000610  00000-0  35553-3 0  9992
2 30567  98.7875 146.0337 0110069  61.7521 354.3495 14.09089989992099
Epoch: 2026-06-03T16:32Z
TLE epoch observation values (Epoch: 2026-06-03T16:32:42.605Z)
Latitude
55.09319°
Longitude
-7.01812°
Altitude
792.256 km
Speed
7.504 km/s
True Right ascension
08h 53m 12s
True Declination
54° 55' 57"
Sunlit
Object was in daylight at epoch
Visualization orbit readout
Latitude
Unknown
Longitude
Unknown
Altitude
Unknown
Speed
Unknown
Apparent Right ascension
Unknown
Apparent Declination
Unknown
Sunlit
N/A
Visualization observer readout
Local Sidereal Time
02:42:12
Azimuth
Unknown
Elevation
Unknown
Doppler factor
Unknown
Orbital elements
Apogee altitude
939.33 km
Perigee altitude
779.998 km
Semi-major axis
7,237.801 km
Eccentricity
0.01101
Inclination
98.7875°
RAAN
146.0337°
Arg. of periapsis
61.7521°
True anomaly
354.22359°
Mean anomaly
354.3495°
Eccentric anomaly
354.28672°
Mean motion
3.52479 °/min
Orbital period
102.13 mins
BSTAR
0.00035553
Loading maneuver chart data...
Computing Atmospheric mass density...

Documentation

Showing up to 5 results
|